Back to catalog

PICOSAT 5

AliveScienceLEO
NORAD 26093·PAYLOAD·🇺🇸 United States

Launched Jan 27, 2000 from Vandenberg Space Force Base

Loading…

Next Passes (next 24 hours)

TLE

FreshSource: Space-Track

Epoch: Sep 14, 2026, 06:09 UTC

1 26093U 00004L   26257.25686253  .00001680  00000-0  32142-3 0  9993
2 26093 100.2027  66.0056 0022717 315.4247  44.5122 14.65578725405492

Track PICOSAT 5 in real time with AllMySat

Download on the App Store